Weather History for KACQ - April, 2014

Change the Weather History Date:

Tuesday, April 8, 2014

  Actual Average Record
Temperature  
Mean Temperature 43 °F -  
Max Temperature 53 °F 51 °F 86 °F (1931)
Min Temperature 33 °F 30 °F 11 °F (1923)
Degree Days  
Heating Degree Days 22    
Moisture  
Dew Point 34 °F    
Average Humidity 74    
Maximum Humidity 87    
Minimum Humidity 54    
Precipitation  
Precipitation 0.00 in - - ()
Sea Level Pressure  
Sea Level Pressure 29.95 in    
Wind  
Wind Speed 11 mph (NW)    
Max Wind Speed 20 mph    
Max Gust Speed 24 mph    
Visibility 10 miles    
Events      
Averages and records for this station are not official NWS values.
T = Trace of Precipitation, MM = Missing Value Source: NWS Daily Summary

Daily Weather History Graph

Daily Weather History Graph

Search for Another Location

Airport or City:

Trip Planner

Search our weather history database for the weather conditions in past years. The results will help you decide how hot, cold, wet, or windy it might be!

Date:

Astronomy

Apr. 08, 2014 Rise Set
Actual Time 6:42 AM CDT 7:49 PM CDT
Civil Twilight 6:13 AM CDT 8:19 PM CDT
Nautical Twilight 5:38 AM CDT 8:55 PM CDT
Astronomical Twilight 5:00 AM CDT 9:32 PM CDT
Moon 1:32 PM CDT (4/8) 3:08 AM CDT (4/8)
Length of Visible Light 14h 06m
Length of Day
13h 06m
Waxing Gibbous, 63% of the Moon is Illuminated
Apr 8
Waxing Gibbous
Apr 15
Full
Apr 22
Last Quarter
Apr 29
New
May 6
First Quarter

Hourly Weather History & Observations

Time (CDT) Temp. Windchill Dew Point Humidity Pressure Visibility Wind Dir Wind Speed Gust Speed Precip Events Conditions
12:17 AM 41.0 °F 34.3 °F 33.8 °F 76% 29.84 in 10.0 mi WNW 11.5 mph - N/A   Clear
12:37 AM 41.0 °F 35.2 °F 33.8 °F 76% 29.84 in 10.0 mi NW 9.2 mph - N/A   Clear
12:57 AM 41.0 °F 35.2 °F 33.8 °F 76% 29.84 in 10.0 mi NW 9.2 mph - N/A   Clear
1:17 AM 37.4 °F 31.4 °F 32.0 °F 81% 29.84 in 10.0 mi NW 8.1 mph - N/A   Clear
1:37 AM 37.4 °F 31.4 °F 32.0 °F 81% 29.84 in 10.0 mi NW 8.1 mph - N/A   Clear
1:57 AM 37.4 °F 32.8 °F 33.8 °F 87% 29.84 in 10.0 mi NW 5.8 mph - N/A   Clear
2:17 AM 37.4 °F 32.8 °F 33.8 °F 87% 29.84 in 10.0 mi NW 5.8 mph - N/A   Clear
2:37 AM 37.4 °F 32.1 °F 32.0 °F 81% 29.84 in 10.0 mi NW 6.9 mph - N/A   Clear
2:57 AM 37.4 °F 31.4 °F 32.0 °F 81% 29.84 in 10.0 mi WNW 8.1 mph - N/A   Clear
3:17 AM 35.6 °F 29.2 °F 32.0 °F 87% 29.84 in 10.0 mi WNW 8.1 mph - N/A   Clear
3:37 AM 35.6 °F 29.2 °F 32.0 °F 87% 29.85 in 10.0 mi NW 8.1 mph - N/A   Clear
3:56 AM 35.6 °F 29.9 °F 32.0 °F 87% 29.84 in 10.0 mi WNW 6.9 mph - N/A   Clear
4:17 AM 35.6 °F 29.9 °F 32.0 °F 87% 29.85 in 10.0 mi WNW 6.9 mph - N/A   Clear
4:37 AM 35.6 °F 29.2 °F 32.0 °F 87% 29.85 in 10.0 mi NW 8.1 mph - N/A   Clear
4:56 AM 37.4 °F 30.8 °F 33.8 °F 87% 29.86 in 10.0 mi NW 9.2 mph - N/A   Scattered Clouds
5:17 AM 35.6 °F 28.0 °F 32.0 °F 87% 29.87 in 10.0 mi NW 10.4 mph - N/A   Scattered Clouds
5:37 AM 35.6 °F 27.5 °F 32.0 °F 87% 29.88 in 10.0 mi NNW 11.5 mph - N/A   Clear
5:57 AM 35.6 °F 28.0 °F 32.0 °F 87% 29.89 in 10.0 mi NW 10.4 mph - N/A   Clear
6:17 AM 35.6 °F 27.5 °F 32.0 °F 87% 29.89 in 10.0 mi NW 11.5 mph - N/A   Clear
6:37 AM 35.6 °F 28.0 °F 32.0 °F 87% 29.91 in 10.0 mi NW 10.4 mph - N/A   Clear
7:17 AM 35.6 °F 28.0 °F 32.0 °F 87% 29.91 in 10.0 mi NW 10.4 mph - N/A   Clear
7:37 AM 35.6 °F 28.0 °F 30.2 °F 81% 29.92 in 10.0 mi NW 10.4 mph - N/A   Clear
7:57 AM 35.6 °F 28.0 °F 30.2 °F 81% 29.93 in 10.0 mi NW 10.4 mph - N/A   Clear
8:17 AM 37.4 °F 28.9 °F 32.0 °F 81% 29.93 in 10.0 mi NW 13.8 mph - N/A   Clear
8:37 AM 37.4 °F 28.5 °F 32.0 °F 81% 29.94 in 10.0 mi NW 15.0 mph 20.7 mph N/A   Clear
8:57 AM 37.4 °F 28.5 °F 32.0 °F 81% 29.95 in 10.0 mi NNW 15.0 mph 20.7 mph N/A   Clear
9:17 AM 37.4 °F 28.5 °F 32.0 °F 81% 29.96 in 10.0 mi NW 15.0 mph - N/A   Clear
9:37 AM 39.2 °F 30.5 °F 33.8 °F 81% 29.96 in 10.0 mi NW 16.1 mph - N/A   Clear
9:57 AM 41.0 °F 32.8 °F 33.8 °F 76% 29.96 in 10.0 mi NW 16.1 mph - N/A   Scattered Clouds
10:17 AM 41.0 °F 31.9 °F 33.8 °F 76% 29.97 in 10.0 mi NW 19.6 mph 23.0 mph N/A   Scattered Clouds
10:37 AM 42.8 °F 34.8 °F 35.6 °F 76% 29.98 in 10.0 mi NW 17.3 mph - N/A   Scattered Clouds
10:57 AM 42.8 °F 34.5 °F 35.6 °F 76% 29.98 in 10.0 mi NW 18.4 mph - N/A   Scattered Clouds
11:17 AM 42.8 °F 34.8 °F 35.6 °F 76% 29.99 in 10.0 mi NW 17.3 mph 23.0 mph N/A   Clear
11:37 AM 44.6 °F 36.6 °F 35.6 °F 71% 29.99 in 10.0 mi NW 19.6 mph 24.2 mph N/A   Clear
11:57 AM 44.6 °F 36.9 °F 37.4 °F 76% 29.99 in 10.0 mi WNW 18.4 mph 23.0 mph N/A   Clear
12:17 PM 46.4 °F 40.7 °F 37.4 °F 71% 29.99 in 10.0 mi NW 12.7 mph 20.7 mph N/A   Scattered Clouds
12:37 PM 46.4 °F 39.8 °F 37.4 °F 71% 29.99 in 10.0 mi NW 16.1 mph 21.9 mph N/A   Scattered Clouds
12:57 PM 48.2 °F - 37.4 °F 66% 29.99 in 10.0 mi NW 17.3 mph - N/A   Scattered Clouds
1:17 PM 50.0 °F - 39.2 °F 66% 29.99 in 10.0 mi NW 18.4 mph - N/A   Mostly Cloudy
1:37 PM 50.0 °F - 39.2 °F 66% 29.99 in 10.0 mi NW 16.1 mph 23.0 mph N/A   Mostly Cloudy
1:57 PM 50.0 °F - 39.2 °F 66% 29.99 in 10.0 mi NW 15.0 mph 21.9 mph N/A   Mostly Cloudy
2:17 PM 51.8 °F - 41.0 °F 67% 29.98 in 10.0 mi NW 15.0 mph - N/A   Mostly Cloudy
2:37 PM 50.0 °F - 37.4 °F 62% 29.98 in 10.0 mi North 12.7 mph 20.7 mph N/A   Mostly Cloudy
2:57 PM 51.8 °F - 37.4 °F 58% 29.99 in 10.0 mi WNW 17.3 mph 20.7 mph N/A   Mostly Cloudy
3:17 PM 53.6 °F - 39.2 °F 58% 29.99 in 10.0 mi NW 17.3 mph - N/A   Mostly Cloudy
3:37 PM 50.0 °F - 37.4 °F 62% 29.99 in 10.0 mi NW 16.1 mph - N/A   Scattered Clouds
3:57 PM 51.8 °F - 37.4 °F 58% 29.99 in 10.0 mi NW 13.8 mph 18.4 mph N/A   Mostly Cloudy
4:17 PM 53.6 °F - 37.4 °F 54% 29.99 in 10.0 mi WNW 16.1 mph - N/A   Mostly Cloudy
4:37 PM 53.6 °F - 37.4 °F 54% 29.99 in 10.0 mi WNW 19.6 mph 23.0 mph N/A   Mostly Cloudy
4:57 PM 53.6 °F - 37.4 °F 54% 29.99 in 10.0 mi WNW 16.1 mph - N/A   Scattered Clouds
5:17 PM 53.6 °F - 37.4 °F 54% 29.99 in 10.0 mi WNW 18.4 mph 21.9 mph N/A   Scattered Clouds
5:37 PM 51.8 °F - 37.4 °F 58% 29.99 in 10.0 mi WNW 16.1 mph 19.6 mph N/A   Scattered Clouds
5:57 PM 50.0 °F - 35.6 °F 58% 30.00 in 10.0 mi WNW 17.3 mph 23.0 mph N/A   Clear
6:17 PM 50.0 °F - 35.6 °F 58% 30.00 in 10.0 mi NW 15.0 mph - N/A   Clear
6:37 PM 50.0 °F - 33.8 °F 54% 30.01 in 10.0 mi WNW 15.0 mph 19.6 mph N/A   Clear
6:57 PM 48.2 °F - 32.0 °F 54% 30.01 in 10.0 mi WNW 12.7 mph - N/A   Clear
7:17 PM 46.4 °F 40.7 °F 32.0 °F 57% 30.01 in 10.0 mi NW 12.7 mph - N/A   Clear
7:37 PM 44.6 °F 40.2 °F 32.0 °F 61% 30.01 in 10.0 mi NW 8.1 mph - N/A   Clear
7:57 PM 42.8 °F 38.6 °F 32.0 °F 66% 30.02 in 10.0 mi WNW 6.9 mph - N/A   Clear
8:17 PM 42.8 °F 38.6 °F 32.0 °F 66% 30.02 in 10.0 mi WNW 6.9 mph - N/A   Clear
8:37 PM 42.8 °F 39.3 °F 32.0 °F 66% 30.03 in 10.0 mi WNW 5.8 mph - N/A   Clear
8:57 PM 41.0 °F 39.0 °F 32.0 °F 70% 30.03 in 10.0 mi WNW 3.5 mph - N/A   Clear
9:17 PM 41.0 °F - 32.0 °F 70% 30.03 in 10.0 mi Calm Calm - N/A   Clear
9:37 PM 37.4 °F 34.9 °F 32.0 °F 81% 30.03 in 10.0 mi West 3.5 mph - N/A   Clear
9:57 PM 37.4 °F - 32.0 °F 81% 30.03 in 10.0 mi Calm Calm - N/A   Clear
10:17 PM 35.6 °F 32.8 °F 32.0 °F 87% 30.03 in 10.0 mi SW 3.5 mph - N/A   Clear
10:37 PM 35.6 °F - 32.0 °F 87% 30.01 in 10.0 mi Calm Calm - N/A   Clear
10:57 PM 37.4 °F - 32.0 °F 81% 30.01 in 10.0 mi Calm Calm - N/A   Clear
11:17 PM 33.8 °F 30.8 °F 30.2 °F 87% 30.01 in 10.0 mi SSW 3.5 mph - N/A   Clear
11:37 PM 35.6 °F - 32.0 °F 87% 30.01 in 10.0 mi Calm Calm - N/A   Clear
11:57 PM 35.6 °F - 32.0 °F 87% 30.00 in 10.0 mi Calm Calm - N/A   Clear